Pierre, SD

6:42 AM CDT on May 25, 2018 (GMT -0500)
Pierre Regional

Weather History for KPIR - March, 2013

Change the Weather History Date:

Thursday, March 21, 2013

  Actual Average Record
Temperature  
Mean Temperature 23 °F 36 °F  
Max Temperature 31 °F 47 °F 80 °F (1939)
Min Temperature 14 °F 25 °F -6 °F (1965)
Degree Days  
Heating Degree Days 42 29  
Month to date heating degree days 763 683  
Since 1 July heating degree days 6187 6181  
Cooling Degree Days 0 0  
Month to date cooling degree days 0 0  
Year to date cooling degree days 0 0  
Moisture  
Dew Point 10 °F    
Average Humidity 62    
Maximum Humidity 73    
Minimum Humidity 51    
Precipitation  
Precipitation T in 0.04 in 0.64 in (1894)
Month to date precipitation T 0.75  
Year to date precipitation 1.66 1.76  
Snow  
Snow T in 0.10 in 4.30 in (1993)
Month to date snowfall 0.2 4.4  
Since 1 July snowfall 31.9 26.2  
Snow Depth 0.00 in    
Sea Level Pressure  
Sea Level Pressure 29.96 in    
Wind  
Wind Speed 18 mph (ESE)    
Max Wind Speed 25 mph    
Max Gust Speed 31 mph    
Visibility 10 miles    
Events Snow    
T = Trace of Precipitation, MM = Missing Value Source: NWS Daily Summary

Daily Weather History Graph

Daily Weather History Graph

Search for Another Location

Airport or City:

Astronomy

Mar. 21, 2013 Rise Set
Actual Time 7:41 AM CDT 7:55 PM CDT
Civil Twilight 7:12 AM CDT 8:24 PM CDT
Nautical Twilight 6:38 AM CDT 8:58 PM CDT
Astronomical Twilight 6:04 AM CDT 9:33 PM CDT
Moon 2:15 PM CDT (3/21) 4:16 AM CDT (3/21)
Length of Visible Light 13h 11m
Length of Day
12h 13m
Waxing Gibbous, 69% of the Moon is Illuminated
Mar 21
Waxing Gibbous
Mar 27
Full
Apr 2
Last Quarter
Apr 10
New
Apr 18
First Quarter

Hourly Weather History & Observations

Time (CDT) Temp. Windchill Dew Point Humidity Pressure Visibility Wind Dir Wind Speed Gust Speed Precip Events Conditions
12:53 AM 16.0 °F 2.9 °F 3.0 °F 57% 30.06 in 10.0 mi East 11.5 mph - N/A   Clear
1:53 AM 15.1 °F -1.1 °F -0.0 °F 51% 30.05 in 10.0 mi ESE 17.3 mph - N/A   Clear
2:53 AM 14.0 °F -2.5 °F -0.9 °F 52% 30.04 in 10.0 mi ESE 17.3 mph - N/A   Partly Cloudy
3:53 AM 15.1 °F -0.6 °F 5.0 °F 64% 30.01 in 10.0 mi ESE 16.1 mph - N/A   Mostly Cloudy
4:53 AM 14.0 °F -2.5 °F 3.9 °F 64% 29.98 in 10.0 mi ESE 17.3 mph - N/A   Clear
5:53 AM 14.0 °F -2.0 °F 6.1 °F 71% 29.96 in 10.0 mi East 16.1 mph - N/A   Overcast
6:53 AM 15.1 °F -2.5 °F 6.1 °F 68% 29.96 in 10.0 mi East 20.7 mph - N/A   Overcast
7:53 AM 15.1 °F -2.5 °F 6.1 °F 68% 29.98 in 10.0 mi East 20.7 mph - N/A   Overcast
8:53 AM 16.0 °F -1.7 °F 6.1 °F 65% 29.96 in 10.0 mi ESE 21.9 mph 25.3 mph N/A   Overcast
9:53 AM 18.0 °F 2.2 °F 9.0 °F 68% 29.96 in 10.0 mi ESE 18.4 mph 26.5 mph 0.00 in   Overcast
10:53 AM 19.0 °F - 9.0 °F 65% 29.95 in 10.0 mi North - - N/A   Overcast
11:53 AM 21.0 °F 5.7 °F 10.9 °F 65% 29.95 in - ESE 19.6 mph 25.3 mph N/A   Overcast
12:53 PM 24.1 °F 10.1 °F 12.0 °F 60% 29.93 in - ESE 18.4 mph - N/A   Overcast
1:53 PM 28.0 °F 14.6 °F 14.0 °F 56% 29.92 in 10.0 mi ESE 20.7 mph 26.5 mph N/A   Overcast
2:53 PM 28.0 °F 15.3 °F 14.0 °F 56% 29.91 in 10.0 mi ESE 18.4 mph - N/A   Overcast
3:53 PM 28.9 °F 16.9 °F 15.1 °F 56% 29.91 in 10.0 mi East 17.3 mph - N/A   Overcast
4:53 PM 30.0 °F 17.2 °F 17.1 °F 59% 29.90 in 10.0 mi East 20.7 mph - N/A   Overcast
5:53 PM 30.0 °F 16.6 °F 17.1 °F 59% 29.91 in 10.0 mi ESE 23.0 mph - N/A   Overcast
6:53 PM 30.0 °F 18.3 °F 17.1 °F 59% 29.93 in 10.0 mi ESE 17.3 mph 27.6 mph N/A   Overcast
7:53 PM 28.9 °F 16.9 °F 18.0 °F 64% 29.95 in 10.0 mi ESE 17.3 mph 25.3 mph N/A   Overcast
8:53 PM 28.0 °F 16.1 °F 18.0 °F 66% 29.96 in 10.0 mi ESE 16.1 mph 24.2 mph N/A   Overcast
9:53 PM 28.0 °F 15.3 °F 16.0 °F 61% 29.96 in 10.0 mi ESE 18.4 mph 27.6 mph N/A   Overcast
10:53 PM 27.0 °F 16.1 °F 17.1 °F 66% 29.99 in 4.0 mi ESE 12.7 mph - 0.00 in Snow Light Snow